Time,TemperatureF,DewpointF,PressureIn,WindDirection,WindDirectionDegrees,WindSpeedMPH,WindSpeedGustMPH,Humidity,HourlyPrecipIn,Conditions,Clouds,dailyrainin,SolarRadiationWatts/m^2,SoftwareType,DateUTC
2013-12-26 00:00:00,22.7,17.5,30.32,South,189,2.0,4.0,80,0.00,,---,0.03,0.00,VWS V14.01,2013-12-26 06:00:00,
2013-12-26 00:03:00,22.5,17.3,30.32,South,189,3.0,4.0,80,0.00,,---,0.00,0.00,VWS V14.01,2013-12-26 06:03:00,
2013-12-26 00:08:00,22.4,17.2,30.32,South,189,3.0,5.0,80,0.00,,---,0.00,0.00,VWS V14.01,2013-12-26 06:08:00,
2013-12-26 00:13:00,22.4,17.2,30.32,South,189,2.0,5.0,80,0.00,,---,0.00,0.00,VWS V14.01,2013-12-26 06:13:00,
2013-12-26 00:18:00,22.4,17.2,30.32,South,189,4.0,5.0,80,0.00,,---,0.00,0.00,VWS V14.01,2013-12-26 06:18:00,
2013-12-26 00:23:00,22.2,17.0,30.32,South,189,2.0,5.0,80,0.00,,---,0.00,0.00,VWS V14.01,2013-12-26 06:23:00,
2013-12-26 00:28:00,22.1,16.9,30.32,South,189,4.0,5.0,80,0.00,,---,0.00,0.00,VWS V14.01,2013-12-26 06:28:00,
2013-12-26 00:30:00,22.1,16.9,30.32,South,189,3.0,5.0,80,0.00,,---,0.00,0.00,VWS V14.01,2013-12-26 06:30:00,
2013-12-26 00:33:00,22.1,16.9,30.32,South,189,3.0,5.0,80,0.00,,---,0.00,0.00,VWS V14.01,2013-12-26 06:33:00,
2013-12-26 00:38:00,22.1,17.2,30.31,South,189,5.0,5.0,81,0.00,,---,0.00,0.00,VWS V14.01,2013-12-26 06:38:00,
2013-12-26 00:43:00,22.2,17.3,30.32,South,189,5.0,5.0,81,0.00,,---,0.00,0.00,VWS V14.01,2013-12-26 06:43:00,
2013-12-26 00:48:00,22.2,17.0,30.32,South,189,5.0,5.0,80,0.00,,---,0.00,0.00,VWS V14.01,2013-12-26 06:48:00,
2013-12-26 00:53:00,22.2,17.0,30.31,South,189,3.0,5.0,80,0.00,,---,0.00,0.00,VWS V14.01,2013-12-26 06:53:00,
2013-12-26 00:58:00,22.2,17.0,30.31,South,189,3.0,5.0,80,0.00,,---,0.00,0.00,VWS V14.01,2013-12-26 06:58:00,
2013-12-26 01:00:00,22.2,17.0,30.31,South,189,3.0,5.0,80,0.00,,---,0.00,0.00,VWS V14.01,2013-12-26 07:00:00,
2013-12-26 01:03:00,22.2,17.0,30.31,South,189,3.0,5.0,80,0.00,,---,0.00,0.00,VWS V14.01,2013-12-26 07:03:00,
2013-12-26 01:08:00,22.2,17.0,30.31,South,189,3.0,5.0,80,0.00,,---,0.00,0.00,VWS V14.01,2013-12-26 07:08:00,
2013-12-26 01:13:00,21.9,16.7,30.31,South,189,2.0,5.0,80,0.00,,---,0.00,0.00,VWS V14.01,2013-12-26 07:13:00,
2013-12-26 01:18:00,21.8,16.6,30.30,South,189,2.0,5.0,80,0.00,,---,0.00,0.00,VWS V14.01,2013-12-26 07:18:00,
2013-12-26 01:23:00,21.6,16.4,30.31,South,189,2.0,5.0,80,0.00,,---,0.00,0.00,VWS V14.01,2013-12-26 07:23:00,
2013-12-26 01:28:00,21.4,15.9,30.31,South,189,2.0,5.0,79,0.00,,---,0.00,0.00,VWS V14.01,2013-12-26 07:28:00,
2013-12-26 01:30:00,21.4,15.9,30.31,South,189,2.0,5.0,79,0.00,,---,0.00,0.00,VWS V14.01,2013-12-26 07:30:00,
2013-12-26 01:33:00,21.3,16.1,30.31,South,189,1.0,3.0,80,0.00,,---,0.00,0.00,VWS V14.01,2013-12-26 07:33:00,
2013-12-26 01:38:00,21.1,15.9,30.31,South,189,3.0,4.0,80,0.00,,---,0.00,0.00,VWS V14.01,2013-12-26 07:38:00,
2013-12-26 01:43:00,21.3,16.1,30.31,South,189,4.0,4.0,80,0.00,,---,0.00,0.00,VWS V14.01,2013-12-26 07:43:00,
2013-12-26 01:48:00,21.3,16.1,30.31,South,189,3.0,5.0,80,0.00,,---,0.00,0.00,VWS V14.01,2013-12-26 07:48:00,
2013-12-26 01:53:00,21.1,15.6,30.30,South,189,4.0,6.0,79,0.00,,---,0.00,0.00,VWS V14.01,2013-12-26 07:53:00,
2013-12-26 01:58:00,21.1,15.6,30.30,South,189,5.0,6.0,79,0.00,,---,0.00,0.00,VWS V14.01,2013-12-26 07:58:00,
2013-12-26 02:00:00,21.1,15.6,30.30,South,189,4.0,6.0,79,0.00,,---,0.00,0.00,VWS V14.01,2013-12-26 08:00:00,
2013-12-26 02:03:00,21.1,15.6,30.30,South,189,3.0,4.0,79,0.00,,---,0.00,0.00,VWS V14.01,2013-12-26 08:03:00,
2013-12-26 02:08:00,21.1,15.6,30.30,South,189,3.0,5.0,79,0.00,,---,0.00,0.00,VWS V14.01,2013-12-26 08:08:00,
2013-12-26 02:13:00,21.1,15.6,30.30,South,189,4.0,5.0,79,0.00,,---,0.00,0.00,VWS V14.01,2013-12-26 08:13:00,
2013-12-26 02:18:00,21.3,15.8,30.30,South,189,4.0,5.0,79,0.00,,---,0.00,0.00,VWS V14.01,2013-12-26 08:18:00,
2013-12-26 02:23:00,21.3,15.8,30.30,South,189,4.0,5.0,79,0.00,,---,0.00,0.00,VWS V14.01,2013-12-26 08:23:00,
2013-12-26 02:28:00,21.4,15.9,30.30,South,189,2.0,5.0,79,0.00,,---,0.00,0.00,VWS V14.01,2013-12-26 08:28:00,
2013-12-26 02:30:00,21.4,15.6,30.30,South,189,4.0,5.0,78,0.00,,---,0.00,0.00,VWS V14.01,2013-12-26 08:30:00,
2013-12-26 02:33:00,21.3,15.5,30.30,South,189,5.0,5.0,78,0.00,,---,0.00,0.00,VWS V14.01,2013-12-26 08:33:00,
2013-12-26 02:38:00,21.1,15.6,30.30,South,189,4.0,5.0,79,0.00,,---,0.00,0.00,VWS V14.01,2013-12-26 08:38:00,
2013-12-26 02:43:00,21.3,15.8,30.29,South,189,5.0,6.0,79,0.00,,---,0.00,0.00,VWS V14.01,2013-12-26 08:43:00,
2013-12-26 02:48:00,21.3,15.8,30.30,South,189,4.0,6.0,79,0.00,,---,0.00,0.00,VWS V14.01,2013-12-26 08:48:00,
2013-12-26 02:53:00,21.1,15.3,30.29,South,189,5.0,6.0,78,0.00,,---,0.00,0.00,VWS V14.01,2013-12-26 08:53:00,
2013-12-26 02:58:00,20.8,15.0,30.29,South,189,5.0,6.0,78,0.00,,---,0.00,0.00,VWS V14.01,2013-12-26 08:58:00,
2013-12-26 03:00:00,20.8,15.0,30.30,South,189,5.0,6.0,78,0.00,,---,0.00,0.00,VWS V14.01,2013-12-26 09:00:00,
2013-12-26 03:03:00,20.8,15.3,30.29,South,189,5.0,6.0,79,0.00,,---,0.00,0.00,VWS V14.01,2013-12-26 09:03:00,
2013-12-26 03:08:00,20.8,15.3,30.29,South,189,5.0,6.0,79,0.00,,---,0.00,0.00,VWS V14.01,2013-12-26 09:08:00,
2013-12-26 03:13:00,21.0,15.5,30.29,South,189,5.0,6.0,79,0.00,,---,0.00,0.00,VWS V14.01,2013-12-26 09:13:00,
2013-12-26 03:18:00,21.1,15.6,30.28,South,189,5.0,7.0,79,0.00,,---,0.00,0.00,VWS V14.01,2013-12-26 09:18:00,
2013-12-26 03:23:00,21.1,15.6,30.28,South,189,4.0,7.0,79,0.00,,---,0.00,0.00,VWS V14.01,2013-12-26 09:23:00,
2013-12-26 03:28:00,21.1,15.6,30.28,South,189,4.0,7.0,79,0.00,,---,0.00,0.00,VWS V14.01,2013-12-26 09:28:00,
2013-12-26 03:30:00,21.3,15.8,30.29,South,189,4.0,7.0,79,0.00,,---,0.00,0.00,VWS V14.01,2013-12-26 09:30:00,
2013-12-26 03:33:00,21.4,15.9,30.29,South,189,5.0,6.0,79,0.00,,---,0.00,0.00,VWS V14.01,2013-12-26 09:33:00,
2013-12-26 03:38:00,21.6,15.8,30.29,SSW,206,6.0,7.0,78,0.00,,---,0.00,0.00,VWS V14.01,2013-12-26 09:38:00,
2013-12-26 03:43:00,21.8,16.0,30.29,SSW,205,3.0,7.0,78,0.00,,---,0.00,0.00,VWS V14.01,2013-12-26 09:43:00,
2013-12-26 03:48:00,21.8,15.7,30.29,SSW,205,6.0,7.0,77,0.00,,---,0.00,0.00,VWS V14.01,2013-12-26 09:48:00,
2013-12-26 03:53:00,21.6,15.5,30.29,SSW,203,5.0,7.0,77,0.00,,---,0.00,0.00,VWS V14.01,2013-12-26 09:53:00,
2013-12-26 03:58:00,21.6,15.5,30.28,SSW,203,4.0,7.0,77,0.00,,---,0.00,0.00,VWS V14.01,2013-12-26 09:58:00,
2013-12-26 04:00:00,21.6,15.5,30.28,SSW,203,5.0,7.0,77,0.00,,---,0.00,0.00,VWS V14.01,2013-12-26 10:00:00,
2013-12-26 04:03:00,21.8,15.7,30.28,SSW,203,3.0,6.0,77,0.00,,---,0.00,0.00,VWS V14.01,2013-12-26 10:03:00,
2013-12-26 04:08:00,21.6,15.2,30.28,SSW,196,4.0,6.0,76,0.00,,---,0.00,0.00,VWS V14.01,2013-12-26 10:08:00,
2013-12-26 04:13:00,21.6,15.5,30.27,SSW,195,4.0,6.0,77,0.00,,---,0.00,0.00,VWS V14.01,2013-12-26 10:13:00,
2013-12-26 04:18:00,21.4,15.3,30.27,SSW,195,5.0,6.0,77,0.00,,---,0.00,0.00,VWS V14.01,2013-12-26 10:18:00,
2013-12-26 04:23:00,21.6,15.5,30.27,SSW,195,4.0,6.0,77,0.00,,---,0.00,0.00,VWS V14.01,2013-12-26 10:23:00,
2013-12-26 04:28:00,21.6,15.5,30.26,SSW,194,4.0,6.0,77,0.00,,---,0.00,0.00,VWS V14.01,2013-12-26 10:28:00,
2013-12-26 04:30:00,21.6,15.2,30.26,SSW,194,5.0,6.0,76,0.00,,---,0.00,0.00,VWS V14.01,2013-12-26 10:30:00,
2013-12-26 04:33:00,21.4,15.3,30.26,South,191,4.0,6.0,77,0.00,,---,0.00,0.00,VWS V14.01,2013-12-26 10:33:00,
2013-12-26 04:38:00,21.3,14.9,30.25,South,191,4.0,6.0,76,0.00,,---,0.00,0.00,VWS V14.01,2013-12-26 10:38:00,
2013-12-26 04:43:00,21.3,15.2,30.25,South,190,5.0,6.0,77,0.00,,---,0.00,0.00,VWS V14.01,2013-12-26 10:43:00,
2013-12-26 04:48:00,21.3,15.2,30.25,South,182,6.0,6.0,77,0.00,,---,0.00,0.00,VWS V14.01,2013-12-26 10:48:00,
2013-12-26 04:53:00,21.4,15.0,30.25,South,182,4.0,6.0,76,0.00,,---,0.00,0.00,VWS V14.01,2013-12-26 10:53:00,
2013-12-26 04:58:00,21.6,15.5,30.24,South,182,6.0,7.0,77,0.00,,---,0.00,0.00,VWS V14.01,2013-12-26 10:58:00,
2013-12-26 05:00:00,21.6,15.5,30.24,South,182,3.0,7.0,77,0.00,,---,0.00,0.00,VWS V14.01,2013-12-26 11:00:00,
2013-12-26 05:03:00,21.6,15.2,30.24,South,182,4.0,6.0,76,0.00,,---,0.00,0.00,VWS V14.01,2013-12-26 11:03:00,
2013-12-26 05:08:00,21.8,15.4,30.24,South,182,4.0,6.0,76,0.00,,---,0.00,0.00,VWS V14.01,2013-12-26 11:08:00,
2013-12-26 05:13:00,21.8,15.4,30.24,South,182,5.0,6.0,76,0.00,,---,0.00,0.00,VWS V14.01,2013-12-26 11:13:00,
2013-12-26 05:18:00,22.1,15.4,30.24,South,182,4.0,6.0,75,0.00,,---,0.00,0.00,VWS V14.01,2013-12-26 11:18:00,
2013-12-26 05:23:00,22.2,15.5,30.24,South,182,5.0,6.0,75,0.00,,---,0.00,0.00,VWS V14.01,2013-12-26 11:23:00,
2013-12-26 05:28:00,22.4,15.7,30.24,South,182,6.0,6.0,75,0.00,,---,0.00,0.00,VWS V14.01,2013-12-26 11:28:00,
2013-12-26 05:30:00,22.4,15.7,30.24,South,182,6.0,6.0,75,0.00,,---,0.00,0.00,VWS V14.01,2013-12-26 11:30:00,
2013-12-26 05:33:00,22.5,15.8,30.24,South,182,4.0,7.0,75,0.00,,---,0.00,0.00,VWS V14.01,2013-12-26 11:33:00,
2013-12-26 05:38:00,22.5,15.8,30.24,South,182,4.0,7.0,75,0.00,,---,0.00,0.00,VWS V14.01,2013-12-26 11:38:00,
2013-12-26 05:43:00,22.5,15.8,30.24,South,182,2.0,7.0,75,0.00,,---,0.00,0.00,VWS V14.01,2013-12-26 11:43:00,
2013-12-26 05:48:00,22.4,15.7,30.24,South,182,4.0,7.0,75,0.00,,---,0.00,0.00,VWS V14.01,2013-12-26 11:48:00,
2013-12-26 05:53:00,22.4,15.7,30.24,South,182,3.0,8.0,75,0.00,,---,0.00,0.00,VWS V14.01,2013-12-26 11:53:00,
2013-12-26 05:58:00,22.5,15.8,30.24,South,182,3.0,8.0,75,0.00,,---,0.00,0.00,VWS V14.01,2013-12-26 11:58:00,
2013-12-26 06:00:00,22.5,15.8,30.24,South,182,3.0,8.0,75,0.00,,---,0.00,0.00,VWS V14.01,2013-12-26 12:00:00,
2013-12-26 06:03:00,22.5,15.8,30.24,South,182,4.0,4.0,75,0.00,,---,0.00,0.00,VWS V14.01,2013-12-26 12:03:00,
2013-12-26 06:08:00,22.7,16.0,30.24,South,182,5.0,6.0,75,0.00,,---,0.00,0.00,VWS V14.01,2013-12-26 12:08:00,
2013-12-26 06:13:00,22.9,16.2,30.23,South,178,6.0,8.0,75,0.00,,---,0.00,0.00,VWS V14.01,2013-12-26 12:13:00,
2013-12-26 06:18:00,23.0,16.0,30.23,South,178,7.0,9.0,74,0.00,,---,0.00,0.00,VWS V14.01,2013-12-26 12:18:00,
2013-12-26 06:23:00,22.9,15.9,30.23,South,178,7.0,9.0,74,0.00,,---,0.00,0.00,VWS V14.01,2013-12-26 12:23:00,
2013-12-26 06:28:00,22.9,15.9,30.22,South,177,7.0,9.0,74,0.00,,---,0.00,0.00,VWS V14.01,2013-12-26 12:28:00,
2013-12-26 06:30:00,22.9,15.9,30.22,South,177,7.0,9.0,74,0.00,,---,0.00,0.00,VWS V14.01,2013-12-26 12:30:00,
2013-12-26 06:33:00,23.0,16.0,30.22,South,173,8.0,9.0,74,0.00,,---,0.00,0.00,VWS V14.01,2013-12-26 12:33:00,
2013-12-26 06:38:00,23.2,16.2,30.22,South,171,7.0,9.0,74,0.00,,---,0.00,0.00,VWS V14.01,2013-12-26 12:38:00,
2013-12-26 06:43:00,23.5,16.5,30.21,South,185,7.0,10.0,74,0.00,,---,0.00,0.00,VWS V14.01,2013-12-26 12:43:00,
2013-12-26 06:48:00,23.6,16.2,30.21,South,173,11.0,11.0,73,0.00,,---,0.00,0.00,VWS V14.01,2013-12-26 12:48:00,
2013-12-26 06:53:00,23.8,16.4,30.21,SSE,167,9.0,11.0,73,0.00,,---,0.00,0.00,VWS V14.01,2013-12-26 12:53:00,
2013-12-26 06:58:00,23.9,16.5,30.21,South,174,6.0,12.0,73,0.00,,---,0.00,0.00,VWS V14.01,2013-12-26 12:58:00,
2013-12-26 06:59:00,23.9,16.2,30.21,South,184,9.0,12.0,72,0.00,,---,0.00,0.00,VWS V14.01,2013-12-26 12:59:00,
2013-12-26 07:00:00,24.1,16.4,30.21,South,171,9.0,12.0,72,0.00,,---,0.00,0.00,VWS V14.01,2013-12-26 13:00:00,
2013-12-26 07:04:00,24.1,16.4,30.21,South,171,6.0,12.0,72,0.00,,---,0.00,0.00,VWS V14.01,2013-12-26 13:04:00,
2013-12-26 07:09:00,24.1,16.4,30.22,South,178,8.0,12.0,72,0.00,,---,0.00,0.00,VWS V14.01,2013-12-26 13:09:00,
2013-12-26 07:14:00,24.1,16.7,30.21,South,174,5.0,12.0,73,0.00,,---,0.00,0.00,VWS V14.01,2013-12-26 13:14:00,
2013-12-26 07:19:00,24.4,16.7,30.22,South,187,4.0,12.0,72,0.00,,---,0.00,0.00,VWS V14.01,2013-12-26 13:19:00,
2013-12-26 07:24:00,24.5,16.8,30.21,South,183,10.0,12.0,72,0.00,,---,0.00,0.00,VWS V14.01,2013-12-26 13:24:00,
2013-12-26 07:29:00,24.8,17.1,30.21,SSW,208,5.0,12.0,72,0.00,,---,0.00,0.00,VWS V14.01,2013-12-26 13:29:00,
2013-12-26 07:30:00,24.8,17.1,30.21,SSW,196,4.0,12.0,72,0.00,,---,0.00,0.00,VWS V14.01,2013-12-26 13:30:00,
2013-12-26 07:34:00,25.1,17.4,30.21,South,184,7.0,12.0,72,0.00,,---,0.00,0.00,VWS V14.01,2013-12-26 13:34:00,
2013-12-26 07:39:00,25.3,17.2,30.21,SSW,200,7.0,12.0,71,0.00,,---,0.00,0.00,VWS V14.01,2013-12-26 13:39:00,
2013-12-26 07:44:00,25.6,17.5,30.22,South,186,7.0,12.0,71,0.00,,---,0.00,0.00,VWS V14.01,2013-12-26 13:44:00,
2013-12-26 07:49:00,25.7,17.6,30.21,South,182,7.0,12.0,71,0.00,,---,0.00,5.00,VWS V14.01,2013-12-26 13:49:00,
2013-12-26 07:54:00,25.8,17.4,30.22,SSW,198,4.0,12.0,70,0.00,,---,0.00,11.00,VWS V14.01,2013-12-26 13:54:00,
2013-12-26 07:59:00,26.0,17.6,30.23,South,180,4.0,12.0,70,0.00,,---,0.00,14.00,VWS V14.01,2013-12-26 13:59:00,
2013-12-26 08:00:00,26.0,17.6,30.22,South,180,4.0,12.0,70,0.00,,---,0.00,14.00,VWS V14.01,2013-12-26 14:00:00,
2013-12-26 08:04:00,26.1,17.7,30.22,SSW,205,6.0,11.0,70,0.00,,---,0.00,21.00,VWS V14.01,2013-12-26 14:04:00,
2013-12-26 08:09:00,26.1,17.7,30.22,South,171,5.0,11.0,70,0.00,,---,0.00,30.00,VWS V14.01,2013-12-26 14:09:00,
2013-12-26 08:14:00,26.1,17.7,30.23,South,184,6.0,11.0,70,0.00,,---,0.00,39.00,VWS V14.01,2013-12-26 14:14:00,
2013-12-26 08:19:00,26.4,17.6,30.23,South,184,4.0,11.0,69,0.00,,---,0.00,49.00,VWS V14.01,2013-12-26 14:19:00,
2013-12-26 08:24:00,26.7,17.9,30.23,South,190,4.0,11.0,69,0.00,,---,0.00,62.00,VWS V14.01,2013-12-26 14:24:00,
2013-12-26 08:29:00,26.9,18.1,30.22,South,188,7.0,11.0,69,0.00,,---,0.00,72.00,VWS V14.01,2013-12-26 14:29:00,
2013-12-26 08:30:00,27.0,17.9,30.22,South,188,4.0,11.0,68,0.00,,---,0.00,76.00,VWS V14.01,2013-12-26 14:30:00,
2013-12-26 08:34:00,27.2,18.0,30.23,SSW,200,2.0,8.0,68,0.00,,---,0.00,84.00,VWS V14.01,2013-12-26 14:34:00,
2013-12-26 08:39:00,27.5,18.0,30.23,SSW,200,4.0,8.0,67,0.00,,---,0.00,100.00,VWS V14.01,2013-12-26 14:39:00,
2013-12-26 08:44:00,27.9,18.4,30.23,SSW,196,2.0,8.0,67,0.00,,---,0.00,116.00,VWS V14.01,2013-12-26 14:44:00,
2013-12-26 08:49:00,28.5,18.6,30.23,SSW,196,5.0,8.0,66,0.00,,---,0.00,130.00,VWS V14.01,2013-12-26 14:49:00,
2013-12-26 08:54:00,29.1,18.8,30.23,South,188,6.0,8.0,65,0.00,,---,0.00,149.00,VWS V14.01,2013-12-26 14:54:00,
2013-12-26 08:59:00,29.4,18.7,30.23,SW,223,4.0,8.0,64,0.00,,---,0.00,167.00,VWS V14.01,2013-12-26 14:59:00,
2013-12-26 09:00:00,29.4,18.7,30.23,SSW,208,5.0,8.0,64,0.00,,---,0.00,167.00,VWS V14.01,2013-12-26 15:00:00,
2013-12-26 09:04:00,29.5,18.8,30.24,SW,217,4.0,7.0,64,0.00,,---,0.00,179.00,VWS V14.01,2013-12-26 15:04:00,
2013-12-26 09:09:00,30.0,19.0,30.23,SSW,209,6.0,7.0,63,0.00,,---,0.00,193.00,VWS V14.01,2013-12-26 15:09:00,
2013-12-26 09:14:00,30.3,19.2,30.23,SSW,209,3.0,7.0,63,0.00,,---,0.00,202.00,VWS V14.01,2013-12-26 15:14:00,
2013-12-26 09:19:00,30.9,19.4,30.23,SSW,202,6.0,8.0,62,0.00,,---,0.00,213.00,VWS V14.01,2013-12-26 15:19:00,
2013-12-26 09:24:00,31.6,20.1,30.22,SSW,194,9.0,9.0,62,0.00,,---,0.00,47.00,VWS V14.01,2013-12-26 15:24:00,
2013-12-26 09:29:00,32.2,20.3,30.22,SSW,202,8.0,10.0,61,0.00,,---,0.00,32.00,VWS V14.01,2013-12-26 15:29:00,
2013-12-26 09:30:00,32.2,20.3,30.22,SW,217,5.0,10.0,61,0.00,,---,0.00,32.00,VWS V14.01,2013-12-26 15:30:00,
2013-12-26 09:34:00,32.8,20.5,30.22,SSW,201,5.0,14.0,60,0.00,,---,0.00,32.00,VWS V14.01,2013-12-26 15:34:00,
2013-12-26 09:39:00,33.4,20.6,30.23,SSW,211,13.0,15.0,59,0.00,,---,0.00,33.00,VWS V14.01,2013-12-26 15:39:00,
2013-12-26 09:44:00,33.8,20.6,30.22,SSW,202,12.0,15.0,58,0.00,,---,0.00,35.00,VWS V14.01,2013-12-26 15:44:00,
2013-12-26 09:49:00,34.3,20.7,30.23,SW,221,5.0,15.0,57,0.00,,---,0.00,179.00,VWS V14.01,2013-12-26 15:49:00,
2013-12-26 09:54:00,34.6,21.0,30.23,SW,234,8.0,15.0,57,0.00,,---,0.00,35.00,VWS V14.01,2013-12-26 15:54:00,
2013-12-26 09:59:00,35.0,20.9,30.23,SW,215,8.0,15.0,56,0.00,,---,0.00,35.00,VWS V14.01,2013-12-26 15:59:00,
2013-12-26 10:00:00,35.0,20.9,30.23,SSW,196,9.0,15.0,56,0.00,,---,0.00,35.00,VWS V14.01,2013-12-26 16:00:00,
2013-12-26 10:04:00,35.3,21.2,30.23,SW,236,7.0,11.0,56,0.00,,---,0.00,35.00,VWS V14.01,2013-12-26 16:04:00,
2013-12-26 10:09:00,35.5,21.0,30.23,SSW,193,7.0,11.0,55,0.00,,---,0.00,39.00,VWS V14.01,2013-12-26 16:09:00,
2013-12-26 10:14:00,35.6,21.0,30.23,SSW,199,5.0,16.0,55,0.00,,---,0.00,35.00,VWS V14.01,2013-12-26 16:14:00,
2013-12-26 10:19:00,36.0,21.4,30.22,SSW,211,9.0,16.0,55,0.00,,---,0.00,77.00,VWS V14.01,2013-12-26 16:19:00,
2013-12-26 10:24:00,36.3,21.7,30.23,SSW,202,6.0,16.0,55,0.00,,---,0.00,35.00,VWS V14.01,2013-12-26 16:24:00,
2013-12-26 10:29:00,36.5,21.9,30.23,SSW,205,5.0,16.0,55,0.00,,---,0.00,37.00,VWS V14.01,2013-12-26 16:29:00,
2013-12-26 10:30:00,36.5,21.9,30.23,SW,220,7.0,16.0,55,0.00,,---,0.00,37.00,VWS V14.01,2013-12-26 16:30:00,
2013-12-26 10:34:00,36.8,21.7,30.23,SSW,205,7.0,10.0,54,0.00,,---,0.00,364.00,VWS V14.01,2013-12-26 16:34:00,
2013-12-26 10:39:00,36.9,21.8,30.22,SSW,198,8.0,13.0,54,0.00,,---,0.00,371.00,VWS V14.01,2013-12-26 16:39:00,
2013-12-26 10:44:00,37.3,21.8,30.22,SSW,207,13.0,14.0,53,0.00,,---,0.00,380.00,VWS V14.01,2013-12-26 16:44:00,
2013-12-26 10:49:00,37.3,22.2,30.22,SW,219,8.0,15.0,54,0.00,,---,0.00,388.00,VWS V14.01,2013-12-26 16:49:00,
2013-12-26 10:54:00,37.6,22.0,30.22,SSW,194,10.0,15.0,53,0.00,,---,0.00,396.00,VWS V14.01,2013-12-26 16:54:00,
2013-12-26 10:59:00,37.8,22.7,30.21,SW,215,10.0,17.0,54,0.00,,---,0.00,404.00,VWS V14.01,2013-12-26 16:59:00,
2013-12-26 11:00:00,37.8,22.7,30.21,SSW,201,8.0,17.0,54,0.00,,---,0.00,404.00,VWS V14.01,2013-12-26 17:00:00,
2013-12-26 11:04:00,37.9,22.8,30.22,SSW,213,11.0,14.0,54,0.00,,---,0.00,411.00,VWS V14.01,2013-12-26 17:04:00,
2013-12-26 11:09:00,37.9,22.8,30.22,SW,222,10.0,17.0,54,0.00,,---,0.00,417.00,VWS V14.01,2013-12-26 17:09:00,
2013-12-26 11:14:00,37.9,22.8,30.21,SSW,205,14.0,18.0,54,0.00,,---,0.00,422.00,VWS V14.01,2013-12-26 17:14:00,
2013-12-26 11:19:00,38.0,22.9,30.21,SW,223,9.0,18.0,54,0.00,,---,0.00,427.00,VWS V14.01,2013-12-26 17:19:00,
2013-12-26 11:24:00,38.2,22.6,30.21,SW,223,12.0,20.0,53,0.00,,---,0.00,434.00,VWS V14.01,2013-12-26 17:24:00,
2013-12-26 11:29:00,38.5,23.3,30.20,SW,217,12.0,20.0,54,0.00,,---,0.00,439.00,VWS V14.01,2013-12-26 17:29:00,
2013-12-26 11:30:00,38.5,23.3,30.20,SW,218,12.0,20.0,54,0.00,,---,0.00,441.00,VWS V14.01,2013-12-26 17:30:00,
2013-12-26 11:34:00,38.9,23.2,30.20,SSW,205,10.0,17.0,53,0.00,,---,0.00,446.00,VWS V14.01,2013-12-26 17:34:00,
2013-12-26 11:39:00,38.8,23.6,30.20,SW,215,13.0,17.0,54,0.00,,---,0.00,452.00,VWS V14.01,2013-12-26 17:39:00,
2013-12-26 11:44:00,38.9,23.7,30.20,SW,232,11.0,17.0,54,0.00,,---,0.00,452.00,VWS V14.01,2013-12-26 17:44:00,
2013-12-26 11:49:00,38.9,23.7,30.21,SSW,213,7.0,17.0,54,0.00,,---,0.00,455.00,VWS V14.01,2013-12-26 17:49:00,
2013-12-26 11:54:00,38.8,24.0,30.21,WSW,237,11.0,17.0,55,0.00,,---,0.00,459.00,VWS V14.01,2013-12-26 17:54:00,
2013-12-26 11:59:00,38.9,23.7,30.21,SW,214,12.0,17.0,54,0.00,,---,0.00,461.00,VWS V14.01,2013-12-26 17:59:00,
2013-12-26 12:00:00,38.9,23.7,30.21,SW,229,11.0,17.0,54,0.00,,---,0.00,461.00,VWS V14.01,2013-12-26 18:00:00,
2013-12-26 12:04:00,38.8,23.6,30.21,SW,226,6.0,13.0,54,0.00,,---,0.00,464.00,VWS V14.01,2013-12-26 18:04:00,
2013-12-26 12:09:00,39.1,24.3,30.20,SSW,207,7.0,13.0,55,0.00,,---,0.00,466.00,VWS V14.01,2013-12-26 18:09:00,
2013-12-26 12:14:00,38.9,23.7,30.20,SW,229,7.0,15.0,54,0.00,,---,0.00,468.00,VWS V14.01,2013-12-26 18:14:00,
2013-12-26 12:19:00,39.1,24.3,30.20,SW,236,6.0,15.0,55,0.00,,---,0.00,469.00,VWS V14.01,2013-12-26 18:19:00,
2013-12-26 12:24:00,39.3,24.1,30.21,WSW,238,7.0,15.0,54,0.00,,---,0.00,469.00,VWS V14.01,2013-12-26 18:24:00,
2013-12-26 12:29:00,39.5,24.7,30.20,WSW,246,8.0,15.0,55,0.00,,---,0.00,469.00,VWS V14.01,2013-12-26 18:29:00,
2013-12-26 12:30:00,39.5,24.7,30.20,WSW,254,9.0,15.0,55,0.00,,---,0.00,469.00,VWS V14.01,2013-12-26 18:30:00,
2013-12-26 12:34:00,39.9,23.7,30.21,WSW,252,10.0,13.0,52,0.00,,---,0.00,468.00,VWS V14.01,2013-12-26 18:34:00,
2013-12-26 12:39:00,40.2,24.5,30.21,West,259,5.0,13.0,53,0.00,,---,0.00,466.00,VWS V14.01,2013-12-26 18:39:00,
2013-12-26 12:44:00,40.2,24.0,30.20,SW,223,6.0,13.0,52,0.00,,---,0.00,464.00,VWS V14.01,2013-12-26 18:44:00,
2013-12-26 12:49:00,40.3,24.1,30.20,SW,220,6.0,13.0,52,0.00,,---,0.00,464.00,VWS V14.01,2013-12-26 18:49:00,
2013-12-26 12:54:00,40.2,24.0,30.20,WSW,237,5.0,13.0,52,0.00,,---,0.00,462.00,VWS V14.01,2013-12-26 18:54:00,
2013-12-26 12:59:00,40.8,24.5,30.20,SW,226,4.0,13.0,52,0.00,,---,0.00,452.00,VWS V14.01,2013-12-26 18:59:00,
2013-12-26 13:00:00,40.8,24.5,30.20,SW,229,6.0,13.0,52,0.00,,---,0.00,452.00,VWS V14.01,2013-12-26 19:00:00,
2013-12-26 13:04:00,41.2,24.9,30.20,SW,215,4.0,8.0,52,0.00,,---,0.00,329.00,VWS V14.01,2013-12-26 19:04:00,
2013-12-26 13:09:00,41.1,24.8,30.19,SW,215,5.0,11.0,52,0.00,,---,0.00,162.00,VWS V14.01,2013-12-26 19:09:00,
2013-12-26 13:14:00,40.8,24.5,30.19,SSW,206,9.0,11.0,52,0.00,,---,0.00,47.00,VWS V14.01,2013-12-26 19:14:00,
2013-12-26 13:19:00,41.2,24.9,30.20,SW,234,9.0,11.0,52,0.00,,---,0.00,40.00,VWS V14.01,2013-12-26 19:19:00,
2013-12-26 13:24:00,40.9,24.6,30.19,SSW,211,5.0,13.0,52,0.00,,---,0.00,40.00,VWS V14.01,2013-12-26 19:24:00,
2013-12-26 13:29:00,41.6,25.3,30.20,SSW,207,4.0,13.0,52,0.00,,---,0.00,39.00,VWS V14.01,2013-12-26 19:29:00,
2013-12-26 13:30:00,41.6,25.3,30.20,SSW,207,4.0,13.0,52,0.00,,---,0.00,39.00,VWS V14.01,2013-12-26 19:30:00,
2013-12-26 13:34:00,41.6,24.8,30.20,SSW,205,6.0,12.0,51,0.00,,---,0.00,39.00,VWS V14.01,2013-12-26 19:34:00,
2013-12-26 13:39:00,41.9,25.1,30.20,SSW,194,7.0,12.0,51,0.00,,---,0.00,39.00,VWS V14.01,2013-12-26 19:39:00,
2013-12-26 13:44:00,41.8,24.5,30.20,SW,229,3.0,12.0,50,0.00,,---,0.00,39.00,VWS V14.01,2013-12-26 19:44:00,
2013-12-26 13:49:00,42.1,24.8,30.19,SW,229,7.0,12.0,50,0.00,,---,0.00,39.00,VWS V14.01,2013-12-26 19:49:00,
2013-12-26 13:54:00,42.6,25.8,30.19,SW,222,6.0,12.0,51,0.00,,---,0.00,39.00,VWS V14.01,2013-12-26 19:54:00,
2013-12-26 13:59:00,42.6,25.3,30.18,South,184,6.0,12.0,50,0.00,,---,0.00,37.00,VWS V14.01,2013-12-26 19:59:00,
2013-12-26 14:00:00,42.5,25.2,30.18,South,184,2.0,12.0,50,0.00,,---,0.00,37.00,VWS V14.01,2013-12-26 20:00:00,
2013-12-26 14:04:00,42.2,25.4,30.19,SW,225,5.0,10.0,51,0.00,,---,0.00,37.00,VWS V14.01,2013-12-26 20:04:00,
2013-12-26 14:09:00,42.3,25.5,30.18,SW,229,9.0,11.0,51,0.00,,---,0.00,37.00,VWS V14.01,2013-12-26 20:09:00,
2013-12-26 14:14:00,42.5,25.7,30.17,SW,226,7.0,11.0,51,0.00,,---,0.00,35.00,VWS V14.01,2013-12-26 20:14:00,
2013-12-26 14:19:00,42.6,25.8,30.17,SW,215,6.0,13.0,51,0.00,,---,0.00,35.00,VWS V14.01,2013-12-26 20:19:00,
2013-12-26 14:24:00,42.9,26.0,30.17,South,169,8.0,13.0,51,0.00,,---,0.00,35.00,VWS V14.01,2013-12-26 20:24:00,
2013-12-26 14:29:00,42.9,26.0,30.17,SSW,211,2.0,13.0,51,0.00,,---,0.00,35.00,VWS V14.01,2013-12-26 20:29:00,
2013-12-26 14:30:00,42.9,26.0,30.17,SSW,211,2.0,13.0,51,0.00,,---,0.00,35.00,VWS V14.01,2013-12-26 20:30:00,
2013-12-26 14:34:00,42.9,26.0,30.18,WSW,240,8.0,8.0,51,0.00,,---,0.00,33.00,VWS V14.01,2013-12-26 20:34:00,
2013-12-26 14:39:00,42.6,25.8,30.17,SSW,195,9.0,9.0,51,0.00,,---,0.00,33.00,VWS V14.01,2013-12-26 20:39:00,
2013-12-26 14:44:00,42.8,26.4,30.18,SSW,205,5.0,9.0,52,0.00,,---,0.00,33.00,VWS V14.01,2013-12-26 20:44:00,
2013-12-26 14:49:00,42.8,26.4,30.17,South,187,3.0,9.0,52,0.00,,---,0.00,33.00,VWS V14.01,2013-12-26 20:49:00,
2013-12-26 14:54:00,42.8,26.4,30.18,SW,216,5.0,10.0,52,0.00,,---,0.00,33.00,VWS V14.01,2013-12-26 20:54:00,
2013-12-26 14:59:00,42.6,26.2,30.18,SSW,211,6.0,11.0,52,0.00,,---,0.00,32.00,VWS V14.01,2013-12-26 20:59:00,
2013-12-26 15:00:00,42.6,26.2,30.18,SSW,211,6.0,11.0,52,0.00,,---,0.00,32.00,VWS V14.01,2013-12-26 21:00:00,
2013-12-26 15:04:00,42.3,26.4,30.18,SW,225,2.0,12.0,53,0.00,,---,0.00,32.00,VWS V14.01,2013-12-26 21:04:00,
2013-12-26 15:09:00,42.6,26.7,30.18,SW,216,9.0,12.0,53,0.00,,---,0.00,32.00,VWS V14.01,2013-12-26 21:09:00,
2013-12-26 15:14:00,42.6,26.7,30.18,South,190,7.0,12.0,53,0.00,,---,0.00,30.00,VWS V14.01,2013-12-26 21:14:00,
2013-12-26 15:19:00,42.6,26.7,30.18,SSW,194,0.0,12.0,53,0.00,,---,0.00,30.00,VWS V14.01,2013-12-26 21:19:00,
2013-12-26 15:24:00,42.9,27.0,30.18,SW,230,5.0,12.0,53,0.00,,---,0.00,30.00,VWS V14.01,2013-12-26 21:24:00,
2013-12-26 15:29:00,42.8,26.4,30.18,SSW,210,7.0,7.0,52,0.00,,---,0.00,28.00,VWS V14.01,2013-12-26 21:29:00,
2013-12-26 15:30:00,42.8,26.4,30.18,SSW,203,5.0,12.0,52,0.00,,---,0.00,30.00,VWS V14.01,2013-12-26 21:30:00,
2013-12-26 15:34:00,43.1,26.7,30.19,WSW,237,5.0,7.0,52,0.00,,---,0.00,28.00,VWS V14.01,2013-12-26 21:34:00,
2013-12-26 15:39:00,43.1,27.1,30.19,SW,222,4.0,7.0,53,0.00,,---,0.00,28.00,VWS V14.01,2013-12-26 21:39:00,
2013-12-26 15:44:00,43.5,27.1,30.19,SSW,193,4.0,9.0,52,0.00,,---,0.00,28.00,VWS V14.01,2013-12-26 21:44:00,
2013-12-26 15:49:00,43.8,27.3,30.19,SSW,196,6.0,9.0,52,0.00,,---,0.00,26.00,VWS V14.01,2013-12-26 21:49:00,
2013-12-26 15:54:00,43.6,27.1,30.19,SW,221,2.0,9.0,52,0.00,,---,0.00,26.00,VWS V14.01,2013-12-26 21:54:00,
2013-12-26 15:59:00,43.9,27.0,30.19,SSW,194,6.0,9.0,51,0.00,,---,0.00,26.00,VWS V14.01,2013-12-26 21:59:00,
2013-12-26 16:00:00,43.9,27.0,30.19,SSW,194,6.0,9.0,51,0.00,,---,0.00,26.00,VWS V14.01,2013-12-26 22:00:00,
2013-12-26 16:04:00,43.3,26.9,30.19,South,187,2.0,8.0,52,0.00,,---,0.00,25.00,VWS V14.01,2013-12-26 22:04:00,
2013-12-26 16:09:00,43.2,26.8,30.20,SSW,210,3.0,8.0,52,0.00,,---,0.00,25.00,VWS V14.01,2013-12-26 22:09:00,
2013-12-26 16:14:00,42.9,26.5,30.20,SSW,206,6.0,9.0,52,0.00,,---,0.00,26.00,VWS V14.01,2013-12-26 22:14:00,
2013-12-26 16:19:00,42.3,26.9,30.20,SSW,211,4.0,9.0,54,0.00,,---,0.00,26.00,VWS V14.01,2013-12-26 22:19:00,
2013-12-26 16:24:00,42.6,26.7,30.20,SSW,198,5.0,9.0,53,0.00,,---,0.00,25.00,VWS V14.01,2013-12-26 22:24:00,
2013-12-26 16:29:00,42.3,26.9,30.20,SSW,196,4.0,4.0,54,0.00,,---,0.00,32.00,VWS V14.01,2013-12-26 22:29:00,
2013-12-26 16:30:00,42.3,26.9,30.20,SSW,196,4.0,9.0,54,0.00,,---,0.00,30.00,VWS V14.01,2013-12-26 22:30:00,
2013-12-26 16:34:00,42.1,26.7,30.20,SW,221,6.0,8.0,54,0.00,,---,0.00,42.00,VWS V14.01,2013-12-26 22:34:00,
2013-12-26 16:35:00,42.1,27.1,30.20,SSE,162,8.0,8.0,55,0.00,,---,0.00,44.00,VWS V14.01,2013-12-26 22:35:00,
2013-12-26 16:40:00,41.9,26.9,30.20,South,191,6.0,8.0,55,0.00,,---,0.00,53.00,VWS V14.01,2013-12-26 22:40:00,
2013-12-26 16:45:00,41.8,26.8,30.21,SSW,201,3.0,8.0,55,0.00,,---,0.00,54.00,VWS V14.01,2013-12-26 22:45:00,
2013-12-26 16:50:00,41.8,26.8,30.21,SSW,204,5.0,8.0,55,0.00,,---,0.00,49.00,VWS V14.01,2013-12-26 22:50:00,
2013-12-26 16:55:00,41.5,26.5,30.21,SSW,209,5.0,8.0,55,0.00,,---,0.00,39.00,VWS V14.01,2013-12-26 22:55:00,
2013-12-26 17:00:00,41.3,26.4,30.21,SSW,195,5.0,7.0,55,0.00,,---,0.00,30.00,VWS V14.01,2013-12-26 23:00:00,
2013-12-26 17:05:00,40.9,26.4,30.21,SSW,195,4.0,8.0,56,0.00,,---,0.00,18.00,VWS V14.01,2013-12-26 23:05:00,
2013-12-26 17:10:00,40.6,26.6,30.21,SSW,211,3.0,8.0,57,0.00,,---,0.00,12.00,VWS V14.01,2013-12-26 23:10:00,
2013-12-26 17:15:00,40.3,26.7,30.21,SSW,204,7.0,8.0,58,0.00,,---,0.00,5.00,VWS V14.01,2013-12-26 23:15:00,
2013-12-26 17:20:00,39.9,26.8,30.21,SSW,198,3.0,8.0,59,0.00,,---,0.00,0.00,VWS V14.01,2013-12-26 23:20:00,
2013-12-26 17:25:00,39.6,26.5,30.21,SSW,202,5.0,8.0,59,0.00,,---,0.00,0.00,VWS V14.01,2013-12-26 23:25:00,
2013-12-26 17:30:00,39.3,26.6,30.21,SSW,198,6.0,8.0,60,0.00,,---,0.00,0.00,VWS V14.01,2013-12-26 23:30:00,
2013-12-26 17:35:00,39.2,26.9,30.21,SSW,200,6.0,8.0,61,0.00,,---,0.00,0.00,VWS V14.01,2013-12-26 23:35:00,
2013-12-26 17:36:00,39.2,26.9,30.21,South,177,7.0,8.0,61,0.00,,---,0.00,0.00,VWS V14.01,2013-12-26 23:36:00,
2013-12-26 17:41:00,38.9,26.6,30.22,SSW,193,3.0,8.0,61,0.00,,---,0.00,0.00,VWS V14.01,2013-12-26 23:41:00,
2013-12-26 17:42:00,38.9,26.6,30.22,South,190,5.0,8.0,61,0.00,,---,0.00,0.00,VWS V14.01,2013-12-26 23:42:00,
2013-12-26 17:47:00,38.6,26.7,30.22,SSW,196,6.0,8.0,62,0.00,,---,0.00,0.00,VWS V14.01,2013-12-26 23:47:00,
2013-12-26 17:49:00,38.6,27.1,30.22,SSW,197,4.0,8.0,63,0.00,,---,0.00,0.00,VWS V14.01,2013-12-26 23:49:00,
2013-12-26 17:54:00,38.5,27.0,30.22,SSW,205,4.0,8.0,63,0.00,,---,0.00,0.00,VWS V14.01,2013-12-26 23:54:00,
2013-12-26 17:59:00,38.3,26.8,30.22,SSW,206,2.0,8.0,63,0.00,,---,0.00,0.00,VWS V14.01,2013-12-26 23:59:00,
2013-12-26 18:00:00,38.3,26.8,30.22,SSW,206,2.0,8.0,63,0.00,,---,0.00,0.00,VWS V14.01,2013-12-27 00:00:00,
2013-12-26 18:04:00,38.3,26.8,30.22,SSW,206,1.0,5.0,63,0.00,,---,0.00,0.00,VWS V14.01,2013-12-27 00:04:00,
2013-12-26 18:09:00,38.2,26.7,30.22,SSW,206,4.0,5.0,63,0.00,,---,0.00,0.00,VWS V14.01,2013-12-27 00:09:00,
2013-12-26 18:14:00,38.0,26.5,30.22,SW,219,4.0,5.0,63,0.00,,---,0.00,0.00,VWS V14.01,2013-12-27 00:14:00,
2013-12-26 18:19:00,37.9,26.5,30.23,SW,219,4.0,6.0,63,0.00,,---,0.00,0.00,VWS V14.01,2013-12-27 00:19:00,
2013-12-26 18:24:00,37.8,26.7,30.23,SW,219,3.0,6.0,64,0.00,,---,0.00,0.00,VWS V14.01,2013-12-27 00:24:00,
2013-12-26 18:29:00,37.5,26.5,30.23,SW,219,4.0,6.0,64,0.00,,---,0.00,0.00,VWS V14.01,2013-12-27 00:29:00,
2013-12-26 18:30:00,37.5,26.5,30.23,SW,219,4.0,6.0,64,0.00,,---,0.00,0.00,VWS V14.01,2013-12-27 00:30:00,
2013-12-26 18:34:00,37.3,26.3,30.23,SW,219,2.0,4.0,64,0.00,,---,0.00,0.00,VWS V14.01,2013-12-27 00:34:00,
2013-12-26 18:39:00,37.0,26.3,30.24,SW,219,0.0,4.0,65,0.00,,---,0.00,0.00,VWS V14.01,2013-12-27 00:39:00,
2013-12-26 18:44:00,36.9,26.2,30.24,SW,219,1.0,4.0,65,0.00,,---,0.00,0.00,VWS V14.01,2013-12-27 00:44:00,
2013-12-26 18:49:00,36.9,26.6,30.24,SW,219,0.0,4.0,66,0.00,,---,0.00,0.00,VWS V14.01,2013-12-27 00:49:00,
2013-12-26 18:54:00,36.5,26.6,30.24,SW,219,2.0,4.0,67,0.00,,---,0.00,0.00,VWS V14.01,2013-12-27 00:54:00,
2013-12-26 18:59:00,36.3,26.4,30.24,SW,219,3.0,3.0,67,0.00,,---,0.00,0.00,VWS V14.01,2013-12-27 00:59:00,
2013-12-26 19:00:00,36.3,26.4,30.24,SW,219,3.0,4.0,67,0.00,,---,0.00,0.00,VWS V14.01,2013-12-27 01:00:00,
2013-12-26 19:04:00,36.2,26.3,30.24,SW,219,4.0,4.0,67,0.00,,---,0.00,0.00,VWS V14.01,2013-12-27 01:04:00,
2013-12-26 19:09:00,36.0,26.1,30.24,SW,219,4.0,5.0,67,0.00,,---,0.00,0.00,VWS V14.01,2013-12-27 01:09:00,
2013-12-26 19:14:00,36.0,26.1,30.24,SW,219,4.0,5.0,67,0.00,,---,0.00,0.00,VWS V14.01,2013-12-27 01:14:00,
2013-12-26 19:19:00,35.9,26.0,30.24,SW,219,4.0,5.0,67,0.00,,---,0.00,0.00,VWS V14.01,2013-12-27 01:19:00,
2013-12-26 19:24:00,35.6,26.1,30.24,SW,219,4.0,5.0,68,0.00,,---,0.00,0.00,VWS V14.01,2013-12-27 01:24:00,
2013-12-26 19:29:00,35.3,26.2,30.25,SW,219,4.0,4.0,69,0.00,,---,0.00,0.00,VWS V14.01,2013-12-27 01:29:00,
2013-12-26 19:30:00,35.3,26.2,30.25,SW,219,4.0,5.0,69,0.00,,---,0.00,0.00,VWS V14.01,2013-12-27 01:30:00,
2013-12-26 19:34:00,35.0,26.2,30.25,SW,219,4.0,4.0,70,0.00,,---,0.00,0.00,VWS V14.01,2013-12-27 01:34:00,
2013-12-26 19:39:00,34.6,26.2,30.25,SSW,198,4.0,5.0,71,0.00,,---,0.00,0.00,VWS V14.01,2013-12-27 01:39:00,
2013-12-26 19:44:00,34.3,25.9,30.25,SSW,198,5.0,5.0,71,0.00,,---,0.00,0.00,VWS V14.01,2013-12-27 01:44:00,
2013-12-26 19:49:00,33.8,25.7,30.25,SSW,198,3.0,5.0,72,0.00,,---,0.00,0.00,VWS V14.01,2013-12-27 01:49:00,
2013-12-26 19:54:00,33.4,25.4,30.25,SSW,198,3.0,6.0,72,0.00,,---,0.00,0.00,VWS V14.01,2013-12-27 01:54:00,
2013-12-26 19:59:00,32.9,25.2,30.25,SSW,198,4.0,4.0,73,0.00,,---,0.00,0.00,VWS V14.01,2013-12-27 01:59:00,
2013-12-26 20:00:00,32.9,25.2,30.25,SSW,198,4.0,6.0,73,0.00,,---,0.00,0.00,VWS V14.01,2013-12-27 02:00:00,
2013-12-26 20:04:00,32.8,25.1,30.25,SSW,198,5.0,6.0,73,0.00,,---,0.00,0.00,VWS V14.01,2013-12-27 02:04:00,
2013-12-26 20:09:00,32.5,25.1,30.25,SSW,198,5.0,6.0,74,0.00,,---,0.00,0.00,VWS V14.01,2013-12-27 02:09:00,
2013-12-26 20:14:00,32.4,25.0,30.25,South,191,5.0,6.0,74,0.00,,---,0.00,0.00,VWS V14.01,2013-12-27 02:14:00,
2013-12-26 20:19:00,32.2,24.9,30.25,South,191,4.0,6.0,74,0.00,,---,0.00,0.00,VWS V14.01,2013-12-27 02:19:00,
2013-12-26 20:24:00,32.1,24.8,30.25,SSW,193,5.0,6.0,74,0.00,,---,0.00,0.00,VWS V14.01,2013-12-27 02:24:00,
2013-12-26 20:29:00,31.9,24.9,30.26,SSW,193,4.0,4.0,75,0.00,,---,0.00,0.00,VWS V14.01,2013-12-27 02:29:00,
2013-12-26 20:30:00,31.9,24.9,30.25,SSW,193,3.0,6.0,75,0.00,,---,0.00,0.00,VWS V14.01,2013-12-27 02:30:00,
2013-12-26 20:34:00,31.8,24.8,30.26,SSW,193,4.0,5.0,75,0.00,,---,0.00,0.00,VWS V14.01,2013-12-27 02:34:00,
2013-12-26 20:39:00,31.6,24.6,30.26,SSW,193,4.0,5.0,75,0.00,,---,0.00,0.00,VWS V14.01,2013-12-27 02:39:00,
2013-12-26 20:44:00,31.5,24.5,30.26,SSW,193,3.0,5.0,75,0.00,,---,0.00,0.00,VWS V14.01,2013-12-27 02:44:00,
2013-12-26 20:49:00,31.2,24.5,30.26,SSW,193,5.0,5.0,76,0.00,,---,0.00,0.00,VWS V14.01,2013-12-27 02:49:00,
2013-12-26 20:54:00,31.0,24.3,30.26,SSW,193,4.0,6.0,76,0.00,,---,0.00,0.00,VWS V14.01,2013-12-27 02:54:00,
2013-12-26 20:59:00,30.9,24.2,30.26,SSW,192,3.0,5.0,76,0.00,,---,0.00,0.00,VWS V14.01,2013-12-27 02:59:00,
2013-12-26 21:00:00,30.9,24.2,30.26,SSW,192,5.0,6.0,76,0.00,,---,0.00,0.00,VWS V14.01,2013-12-27 03:00:00,
2013-12-26 21:04:00,30.7,24.0,30.26,SSW,192,4.0,5.0,76,0.00,,---,0.00,0.00,VWS V14.01,2013-12-27 03:04:00,
2013-12-26 21:09:00,30.6,24.3,30.26,SSW,192,3.0,5.0,77,0.00,,---,0.00,0.00,VWS V14.01,2013-12-27 03:09:00,
2013-12-26 21:14:00,30.4,24.1,30.26,SSW,192,4.0,5.0,77,0.00,,---,0.00,0.00,VWS V14.01,2013-12-27 03:14:00,
2013-12-26 21:19:00,30.1,23.8,30.26,SSW,192,4.0,5.0,77,0.00,,---,0.00,0.00,VWS V14.01,2013-12-27 03:19:00,
2013-12-26 21:24:00,29.7,23.7,30.26,South,181,4.0,5.0,78,0.00,,---,0.00,0.00,VWS V14.01,2013-12-27 03:24:00,
2013-12-26 21:29:00,29.4,23.4,30.26,South,180,3.0,3.0,78,0.00,,---,0.00,0.00,VWS V14.01,2013-12-27 03:29:00,
2013-12-26 21:30:00,29.5,23.5,30.26,South,180,3.0,5.0,78,0.00,,---,0.00,0.00,VWS V14.01,2013-12-27 03:30:00,
2013-12-26 21:34:00,29.3,23.6,30.26,South,180,3.0,4.0,79,0.00,,---,0.00,0.00,VWS V14.01,2013-12-27 03:34:00,
2013-12-26 21:39:00,29.1,23.4,30.26,South,180,3.0,5.0,79,0.00,,---,0.00,0.00,VWS V14.01,2013-12-27 03:39:00,
2013-12-26 21:44:00,29.1,23.4,30.26,South,180,4.0,5.0,79,0.00,,---,0.00,0.00,VWS V14.01,2013-12-27 03:44:00,
2013-12-26 21:49:00,29.0,23.3,30.26,SSW,195,4.0,5.0,79,0.00,,---,0.00,0.00,VWS V14.01,2013-12-27 03:49:00,
2013-12-26 21:54:00,29.1,23.4,30.26,SSW,195,4.0,5.0,79,0.00,,---,0.00,0.00,VWS V14.01,2013-12-27 03:54:00,
2013-12-26 21:59:00,29.1,23.4,30.27,SSW,195,2.0,3.0,79,0.00,,---,0.00,0.00,VWS V14.01,2013-12-27 03:59:00,
2013-12-26 22:00:00,29.1,23.4,30.27,SSW,195,3.0,5.0,79,0.00,,---,0.00,0.00,VWS V14.01,2013-12-27 04:00:00,
2013-12-26 22:05:00,29.3,23.6,30.27,SSW,195,3.0,4.0,79,0.00,,---,0.00,0.00,VWS V14.01,2013-12-27 04:05:00,
2013-12-26 22:10:00,29.3,23.6,30.27,SSW,195,2.0,4.0,79,0.00,,---,0.00,0.00,VWS V14.01,2013-12-27 04:10:00,
2013-12-26 22:15:00,29.1,23.4,30.27,SSW,195,3.0,4.0,79,0.00,,---,0.00,0.00,VWS V14.01,2013-12-27 04:15:00,
2013-12-26 22:20:00,29.0,23.3,30.27,SSW,195,2.0,4.0,79,0.00,,---,0.00,0.00,VWS V14.01,2013-12-27 04:20:00,
2013-12-26 22:24:00,28.8,23.1,30.27,SSW,195,3.0,4.0,79,0.00,,---,0.00,0.00,VWS V14.01,2013-12-27 04:24:00,
2013-12-26 22:30:00,28.5,22.8,30.28,SSW,194,4.0,4.0,79,0.00,,---,0.00,0.00,VWS V14.01,2013-12-27 04:30:00,
2013-12-26 22:35:00,28.4,22.7,30.28,SSW,194,3.0,6.0,79,0.00,,---,0.00,0.00,VWS V14.01,2013-12-27 04:35:00,
2013-12-26 22:40:00,28.2,22.8,30.28,SSW,193,4.0,6.0,80,0.00,,---,0.00,0.00,VWS V14.01,2013-12-27 04:40:00,
2013-12-26 22:45:00,28.1,22.7,30.28,SSW,192,4.0,6.0,80,0.00,,---,0.00,0.00,VWS V14.01,2013-12-27 04:45:00,
2013-12-26 22:50:00,27.9,22.5,30.28,South,178,6.0,7.0,80,0.00,,---,0.00,0.00,VWS V14.01,2013-12-27 04:50:00,
2013-12-26 22:55:00,27.8,22.4,30.28,South,174,5.0,7.0,80,0.00,,---,0.00,0.00,VWS V14.01,2013-12-27 04:55:00,
2013-12-26 23:00:00,27.6,22.2,30.28,South,180,4.0,5.0,80,0.00,,---,0.00,0.00,VWS V14.01,2013-12-27 05:00:00,
2013-12-26 23:01:00,27.6,22.2,30.28,South,180,5.0,5.0,80,0.00,,---,0.00,0.00,VWS V14.01,2013-12-27 05:01:00,
2013-12-26 23:02:00,27.6,22.2,30.28,South,180,4.0,5.0,80,0.00,,---,0.00,0.00,VWS V14.01,2013-12-27 05:02:00,
2013-12-26 23:07:00,27.6,22.2,30.28,South,180,5.0,5.0,80,0.00,,---,0.00,0.00,VWS V14.01,2013-12-27 05:07:00,
2013-12-26 23:12:00,27.6,22.2,30.28,South,180,3.0,5.0,80,0.00,,---,0.00,0.00,VWS V14.01,2013-12-27 05:12:00,
2013-12-26 23:17:00,27.6,22.2,30.28,South,180,4.0,5.0,80,0.00,,---,0.00,0.00,VWS V14.01,2013-12-27 05:17:00,
2013-12-26 23:22:00,27.6,22.2,30.28,South,180,4.0,5.0,80,0.00,,---,0.00,0.00,VWS V14.01,2013-12-27 05:22:00,
2013-12-26 23:27:00,27.6,22.2,30.28,South,180,2.0,5.0,80,0.00,,---,0.00,0.00,VWS V14.01,2013-12-27 05:27:00,
2013-12-26 23:30:00,27.6,22.2,30.28,South,180,2.0,5.0,80,0.00,,---,0.00,0.00,VWS V14.01,2013-12-27 05:30:00,
2013-12-26 23:32:00,27.6,22.2,30.28,South,180,3.0,4.0,80,0.00,,---,0.00,0.00,VWS V14.01,2013-12-27 05:32:00,
2013-12-26 23:37:00,27.5,22.1,30.28,South,180,3.0,4.0,80,0.00,,---,0.00,0.00,VWS V14.01,2013-12-27 05:37:00,
2013-12-26 23:42:00,27.3,22.0,30.29,South,180,2.0,4.0,80,0.00,,---,0.00,0.00,VWS V14.01,2013-12-27 05:42:00,
2013-12-26 23:47:00,27.3,22.0,30.29,South,180,1.0,4.0,80,0.00,,---,0.00,0.00,VWS V14.01,2013-12-27 05:47:00,
2013-12-26 23:52:00,27.3,22.0,30.29,South,180,2.0,4.0,80,0.00,,---,0.00,0.00,VWS V14.01,2013-12-27 05:52:00,
2013-12-26 23:57:00,27.3,22.0,30.29,South,180,3.0,4.0,80,0.00,,---,0.00,0.00,VWS V14.01,2013-12-27 05:57:00,